Location: Le Rocchette
(44.3500°N, 7.8333°E)
Time: 12:36:59
(UTC+00:00)

ADEOS Rocket - Pass Details

Date: 17 November 2019
Orbit: 858 x 1307 km, 98.7° (Epoch: 14 December)

Event Time Altitude Azimuth Distance (km) Brightness Sun altitude
Rises 05:48:56 0° 158° (SSE) 4,283 7.0 -7.0°
Reaches altitude 10° 05:51:39 10° 156° (SSE) 3,317 6.5 -6.6°
Maximum altitude 05:59:24 77° 73° (ENE) 1,315 3.9 -5.3°
Drops below altitude 10° 06:06:49 10° 349° (N) 3,179 5.4 -4.1°
Sets 06:09:22 0° 348° (NNW) 4,096 5.9 -3.6°
